Regional Weather Roundup
Issued by NWS

Home | Current Version | Previous Version | Text Only | Print | Product List | Glossary On
Versions: 1 2 3 4 5 6 7 8 9 10 11 12 13 14 15 16 17 18 19 20 21 22 23 24 25 26 27 28 29 30 31 32 33 34 35 36 37 38 39 40 41 42 43 44 45 46 47 48 49 50
000
ASUS42 KKEY 270510
RWRKEY

FLORIDA REGIONAL WEATHER ROUNDUP FOR THE FLORIDA KEYS
NATIONAL WEATHER SERVICE KEY WEST FLORIDA
1200 AM EST THU NOV 27 2014

...SOUTH FLORIDA AND THE KEYS...

CITY           SKY/WX    TMP DP  RH WIND       PRES   REMARKS
FORT MYERS     PTCLDY    53  47  79 NE3       30.22S
SW REGIONAL AP PTCLDY    50  46  86 CALM      30.23S
NAPLES         CLEAR     53  49  86 N5        30.22S
MIAMI          CLOUDY    59  43  55 N6        30.19S
WEST KENDALL   MOCLDY    59  44  57 N14       30.19S
HOMESTEAD      MOCLDY    60  45  57 N12       30.18F
MARATHON       MOCLDY    64  49  57 N15G23    30.18F
BOCA CHICA NAS PTCLDY    63 N/A N/A N16G25    30.19S
KEY WEST INTL  PTCLDY    65  48  54 N15       30.20S

...INTERNATIONAL WEATHER...

CITY           SKY/WX    TMP DP  RH WIND       PRES   REMARKS
NASSAU BAHAMAS MOCLDY    75  70  83 NE8       30.09F
CANCUN MEXICO  PTCLDY    72  59  64 N5        30.18R
COZUMEL MEXICO CLOUDY    70  64  83 N13       30.16S

ADJACENT COASTAL WATERS...

STATION/POSITION TIME  SKY/WX   TEMP    WIND        PRES    WAVE
                                AIR SEA DIR/SP/G            HT/PER
                 (UTC)          (F)     (DEG/KT/KT) (MB)    (FT/S)
PULASKI SHOAL LI 0400            67      30/ 19/ 22 1022.5S
SAND KEY         0430            66      20/ 21/ 27 1022.2S
SOMBRERO KEY     0500            64      10/ 21/ 24 1022.2R
LONG KEY         0357            64 75   10/ 16/ 18 1022.7R
MOLASSES REEF    0357            65 78  360/ 18/ 19 1021.2R
FOWEY ROCKS      NOT AVBL
Buoy 42080       NOT AVBL

$$



USA.gov is the U.S. government's official web portal to all federal, state and local government web resources and services.